AirNav   Air Wisconsin Up To $57,000 Bonus
 
 1170 users online  

MY97 Nielsen's Airport
Farmington, Minnesota, USA

GOING TO FARMINGTON?


FAA INFORMATION EFFECTIVE 01 DECEMBER 2022

Location

FAA Identifier: MY97
Lat/Long: 44-35-52.8700N 093-07-36.7700W
44-35.881167N 093-07.612833W
44.5980194,-93.1268806
(estimated)
Elevation: 990 ft. / 302 m (estimated)
Variation: 03E (1990)
From city: 3 miles S of FARMINGTON, MN
Time zone: UTC -6 (UTC -5 during Daylight Saving Time)
Zip code: 55024

Airport Operations

Airport use: Private use. Permission required prior to landing
Activation date: 12/1992
Control tower: no
ARTCC: MINNEAPOLIS CENTER
FSS: PRINCETON FLIGHT SERVICE STATION
Attendance: UNATNDD
Wind indicator: yes
Segmented circle: no

Airport Communications

WX AWOS-3 at LVN (5 nm NW): 118.0 (952-469-5850)
WX AWOS-3 at SYN (9 nm SE): 119.35 (507-664-3806)
WX AWOS-3 at SGS (16 nm N): 119.425 (651-457-8120)
WX ASOS at MSP (18 nm N): PHONE 612-713-4174
WX AWOS-3 at FBL (18 nm SW): 120.2 (507-332-2505)
WX ASOS at FCM (20 nm NW): PHONE 952-941-4156

Nearby radio navigation aids

VOR radial/distance  VOR name  Freq  Var
FGTr124/3.1FARMINGTON VORTAC115.7006E
MSPr163/18.5MINNEAPOLIS VOR/DME115.3002E
FCMr134/19.2FLYING CLOUD VOR/DME117.7001E
FOWr022/25.8HALFWAY VOR/DME111.2002E
GEPr156/34.5GOPHER VORTAC117.3006E

Airport Services

Runway Information

Runway 18/36

Dimensions: 2000 x 60 ft. / 610 x 18 m
Surface: turf
RUNWAY 18  RUNWAY 36
Traffic pattern: leftleft
Displaced threshold: 160 ft.no

Airport Ownership and Management from official FAA records

Ownership: Privately-owned
Owner: JAMES I. NIELSEN
3196- 240TH STREET WEST
FARMINGTON, MN 55024
Phone 612-743-7761
Manager: JAMES I. NIELSEN
3196- 240TH STREET WEST
FARMINGTON, MN 55024
Phone 612-743-7761

Airport Operational Statistics

Aircraft based on the field: 4
Single engine airplanes: 4
    

Additional Remarks

FOR CD CTC MINNEAPOLIS ARTCC AT 651-463-5588.

Instrument Procedures

There are no published instrument procedures at MY97.

Some nearby airports with instrument procedures:

KLVN - Airlake Airport (5 nm NW)
KSGS - South St Paul Municipal Airport/Richard E Fleming Field (16 nm N)
KMSP - Minneapolis-St Paul International/Wold-Chamberlain Airport (18 nm N)
KFBL - Faribault Municipal Airport-Liz Wall Strohfus Field (18 nm SW)
KFCM - Flying Cloud Airport (20 nm NW)
 
Loc | Ops | Rwys | IFR | FBO | Links
Com | Nav | Svcs | Stats | Notes
Area around MY97 (Nielsen's Airport)
 
Road maps at: MapQuest Bing Google
 
Aerial photo
No photo
 
Sectional chart

 
Airport distance calculator
Flying to Nielsen's Airport? Find the distance to fly.

From to MY97

Sunrise and sunset
Times for 03-Dec-2022
 Local
(UTC-6)
 Zulu
(UTC)
Morning civil twilight06:5912:59
Sunrise07:3213:32
Sunset16:3222:32
Evening civil twilight17:0523:05

Current date and time
Zulu (UTC)  04-Dec-2022 01:57:46
Local (UTC-6)  03-Dec-2022 19:57:46
 
METAR
KLVN 
4nm W 
040155Z AUTO 00000KT 10SM CLR M16/M18 A3028 RMK AO2
KSYN 
9nm SE 
040155Z AUTO 19005KT 10SM CLR M10/M14 A3027 RMK AO2 T11041140
KSGS 
15nm N 
040155Z AUTO 00000KT 10SM CLR M13/M16 A3028 RMK AO2 T11271163
KMSP 
18nm N 
040153Z 13005KT 10SM CLR M12/M17 A3027 RMK AO2 SLP272 T11221172 $
KFBL 
19nm SW 
040155Z AUTO 16006KT 10SM CLR M11/M13 A3025 RMK AO2
TAF
KMSP 
18nm N 
032236Z 0323/0424 18005KT P6SM SKC FM040900 23008KT P6SM SKC FM041800 24010KT P6SM SKC
NOTAMs
Click for the latest NOTAMs
NOTAMs are issued by the DoD/FAA and will open in a separate window not controlled by AirNav.

 

 
 

Would you like to see your business listed on this page?

 If your business provides an interesting product or service to pilots, flight crews, aircraft, or users of the Nielsen's Airport, you should consider listing it here.  To start the listing process, click on the button below
 
Add a business
 

Other Pages about Nielsen's Airport

Update a link
 
Copyright © AirNav, LLC. All rights reserved. Privacy Policy  Contact